Location: NJAA Observatory
(40.6819°N, 74.8979°W)
Time: 17:41:48
(UTC-04:00)

Daily predictions for brighter satellites

Satellite Brightness Start Highest point End
(mag) Time Altitude Azimuth Time Altitude Azimuth Time Altitude Azimuth
Cosmos 1818 3.7 19:41:31 10° NNW 19:46:56 60° NE 19:52:16 10° SE
FREGAT/IRIS 2.6 19:45:18 10° SSE 19:48:21 89° WSW 19:51:26 10° NNW
COSMOS 2487 3.7 19:45:48 10° N 19:48:50 25° ENE 19:51:49 10° ESE
Cosmos 1271 Rocket 4.3 19:46:46 10° SE 19:49:23 17° E 19:52:01 10° NE
Cosmos 1758 3.8 19:46:19 10° SSE 19:49:58 37° E 19:53:41 10° NNE
Lacrosse 5 3.0 19:48:50 10° WSW 19:53:43 46° NW 19:58:36 10° NE
Cosmos 1953 2.7 19:52:33 10° SSE 19:56:22 41° E 20:00:12 10° NNE
Cosmos 1674 3.8 19:54:04 10° NNE 19:57:12 24° ENE 20:00:20 10° SE
Cosmos 1766 3.8 19:54:57 10° SSW 19:58:46 64° W 20:02:40 10° N
Cosmos 1408 Rocket 4.4 19:56:01 10° NNE 20:00:00 31° ENE 20:03:57 10° SE
Resurs 1-3 4.0 19:55:59 10° SE 20:00:07 43° ENE 20:04:17 10° N
Helios 1B rocket 3.4 20:04:49 10° NE 20:08:17 25° E 20:11:42 10° SSE
Meteor 1-4 Rocket 2.4 20:05:01 10° S 20:08:26 62° E 20:11:53 10° NNE
In-Cosmos 22 4.2 20:05:36 10° NNW 20:10:55 82° W 20:16:11 10° S
Spot 2 Rocket 3.5 20:08:38 10° SSE 20:13:42 70° ENE 20:18:48 10° N
Cosmos 2098 Rocket 4.4 20:06:47 10° S 20:14:01 68° E 20:21:32 10° NNE
Lacrosse 4 Rocket 4.5 20:13:15 10° WNW 20:15:03 12° NW 20:16:50 10° NNW
Timation 2 Rocket 4.1 20:09:16 10° NNW 20:15:28 54° ENE 20:21:17 10° SE
Cosmos 1459 Rocket 4.5 20:10:01 10° SSE 20:15:41 38° E 20:21:18 10° NNE
Lacrosse 5 rocket 2.0 20:12:26 10° NNW 20:16:06 35° NE 20:18:26 18° E
Cosmos 1447 Rocket 4.4 20:11:50 10° N 20:17:57 68° E 20:24:04 10° SSE
SWAS 4.4 20:15:32 10° S 20:19:44 60° ESE 20:24:00 10° NNE
Cosmos 1076 Rocket 3.4 20:16:03 10° N 20:20:19 73° E 20:24:32 10° SSE
Cosmos 1544 3.4 20:17:35 10° SSW 20:21:12 68° W 20:24:53 10° N
Cosmos 2344 4.4 20:14:12 10° SW 20:21:44 57° NW 20:30:20 10° NNE
Cosmos 1867 3.6 20:17:37 10° SSW 20:23:04 85° WNW 20:28:34 10° NNE
H-2A R/B (2) 3.6 20:21:33 10° SW 20:23:51 17° S 20:26:56 12° SE
Cosmos 2173 Rocket 4.3 20:18:06 10° SSE 20:23:52 43° E 20:29:44 10° NNE
CZ-2D R/B 3.2 20:20:07 10° SSE 20:23:57 69° ENE 20:27:51 10° N
FENGYUN 3A 4.2 20:18:39 10° S 20:23:59 64° WSW 20:29:21 10° NNW
Okean 3 Rocket 4.1 20:20:10 10° NNW 20:24:32 63° W 20:28:54 10° S
Cosmos 1805 3.9 20:23:47 10° SSW 20:27:37 58° W 20:31:29 10° N
Cosmos 1833 Rocket 2.6 20:23:41 10° NNW 20:29:20 75° ENE 20:34:48 11° SSE
Helios 1A 3.2 20:26:17 13° SE 20:29:52 50° ENE 20:33:56 10° N
ALOS 3.3 20:25:31 10° S 20:30:01 47° W 20:34:33 10° NNW
Cosmos 482 Debris 4.5 20:30:03 10° NNW 20:31:14 18° NNE 20:31:14 18° NNE
Envisat 3.5 20:28:31 17° SE 20:31:58 39° ENE 20:36:39 10° N
Meteor 1-21 Rocket 4.3 20:26:20 10° N 20:32:13 86° E 20:38:07 10° S
Abrixas 4.1 20:31:47 10° W 20:34:14 26° SW 20:35:43 17° S
Cosmos 1184 Rocket 4.1 20:32:25 10° NNE 20:35:04 24° ENE 20:35:04 24° ENE
Cosmos 2278 Rocket 4.0 20:33:59 10° WSW 20:39:04 33° WNW 20:44:11 10° N
ATLAS 5 CENTAUR R/B 1.7 20:36:46 10° SW 20:41:26 88° WNW 20:46:33 10° NE
SS 2 4.5 20:39:10 10° NNW 20:42:05 81° NE 20:43:10 38° SE
SeaSat 1 3.2 20:37:25 10° S 20:42:12 52° WSW 20:47:02 10° NW
Cosmos 1125 Rocket 4.2 20:37:47 10° SSW 20:42:53 57° WNW 20:48:02 10° N
Cosmos 1733 3.1 20:40:13 10° S 20:44:03 72° E 20:47:56 10° NNE
Spot 1 4.3 20:39:57 11° SSE 20:44:23 77° ENE 20:49:21 10° N
ERS-1 Rocket 4.0 20:43:16 25° E 20:44:29 28° ENE 20:48:43 10° N
Geosat 3.9 20:40:00 10° NNE 20:45:01 73° ESE 20:50:02 10° SSW
Cosmos 1470 2.6 20:41:42 10° S 20:45:40 80° E 20:49:39 10° N
Cosmos 1048 Rocket 4.3 20:40:53 10° NNW 20:45:58 67° WSW 20:51:02 10° S
Cosmos 1766 Rocket 3.7 20:42:31 10° N 20:47:01 79° W 20:51:29 10° S
GPS 2-05 Rocket1 3.7 20:44:23 10° WSW 20:47:41 36° S 20:48:14 33° SSE
Cosmos-2242 2.9 20:44:06 10° S 20:48:21 90° NE 20:52:38 10° N
H-2A R/B 4.2 20:50:23 10° NE 20:50:23 10° NE 20:50:32 10° NE
OAO 2 Rocket 4.5 20:46:18 10° SW 20:50:35 26° SSE 20:51:18 25° SE
GP-B 3.1 20:47:12 10° S 20:51:38 82° W 20:56:06 10° N
Cosmos 1356 Rocket 3.9 20:50:23 10° N 20:54:11 36° ENE 20:54:14 36° ENE
Cosmos 2016 Rocket 4.0 20:49:56 10° SSE 20:55:59 56° E 21:01:58 10° NNE
CZ-4B DEB 4.4 20:54:49 33° SSE 20:56:20 88° ENE 20:59:56 10° NNW
USA 186 2.4 20:58:06 35° W 20:58:06 35° W 21:00:06 10° NNW
BREEZE-M DEB (TANK) 4.2 20:56:17 10° W 20:59:29 54° NNW 21:09:13 10° ENE
Cosmos 1340 Rocket 2.7 20:56:32 10° N 21:00:33 85° W 21:02:27 30° S
Resurs 01 Rocket 3.3 20:57:00 10° SSW 21:00:59 33° W 21:05:00 10° NNW
CZ-4B DEB 2.5 21:01:09 78° S 21:01:21 88° W 21:04:27 10° NNW
Cosmos 1725 Rocket 4.2 21:02:51 28° SE 21:05:39 45° E 21:11:31 10° NNE
Cosmos 2082 Rocket 3.1 21:04:03 10° NW 21:09:27 46° WSW 21:14:42 10° S
ISS -2.7 21:08:56 10° WSW 21:12:02 41° NNW 21:12:44 35° N
ARGOS 4.3 21:13:45 26° ENE 21:13:45 26° ENE 21:17:48 10° N
Meteor 1-29 3.5 21:10:21 10° N 21:13:47 59° WNW 21:16:41 14° SSW
Cosmos 2100 Rocket 4.3 21:08:35 10° SSW 21:14:52 69° W 21:21:15 10° N
Cosmos 1743 Rocket 3.6 21:13:43 10° N 21:18:10 78° W 21:19:40 41° S
SL-08 R/B 4.4 21:12:11 10° S 21:18:29 71° E 21:24:54 10° NNE
Cosmos 1500 Rocket 3.3 21:14:51 10° N 21:19:11 78° E 21:19:25 74° ESE
Meteor 1-11 4.1 21:15:05 10° N 21:20:39 65° E 21:21:49 52° SE
Meteor 1-16 Rocket 4.2 21:15:10 10° S 21:21:01 81° E 21:26:58 10° NNE
YAOGAN 6 3.7 21:24:20 36° NNE 21:24:20 36° NNE 21:26:46 10° N
SL-14 R/B 3.4 21:19:27 10° N 21:22:48 64° N 21:22:48 64° N
CZ-3B DEB 4.2 21:16:41 10° W 21:23:23 24° NNW 21:27:12 10° NNE
Cosmos 2058 3.9 21:22:37 10° N 21:25:21 36° NNE 21:25:21 36° NNE
Cosmos 2251 Rocket 3.4 21:22:16 10° NNW 21:27:38 86° ENE 21:28:41 59° SSE
Tsikada Rocket 4.0 21:21:45 10° N 21:27:56 62° E 21:29:09 52° SE
Cosmos 1328 4.0 21:26:34 10° NNW 21:30:24 68° W 21:30:24 68° W
USA 215 3.1 21:28:18 10° NE 21:34:50 72° SE 21:41:20 10° SW
Lacrosse 5 4.5 21:34:45 10° NW 21:37:50 16° NNW 21:40:55 10° NNE
SPOT 5 3.5 21:42:54 48° NE 21:42:54 48° NE 21:47:17 10° N
Cosmos 2151 3.5 21:38:36 10° N 21:42:01 56° NNW 21:42:01 56° NNW
Meteor 2-1 Rocket 4.1 21:43:32 73° E 21:43:32 73° E 21:49:06 10° NNE
Cosmos 1939 Rocket 3.9 21:42:56 40° WSW 21:43:28 42° W 21:47:25 10° NNW
Terra 4.2 21:52:12 13° NNE 21:52:12 13° NNE 21:52:54 10° NNE
Lacrosse 5 rocket 3.3 21:51:58 10° WNW 21:54:09 22° W 21:54:09 22° W
Cosmos 1816 Rocket 4.3 21:50:50 10° N 21:57:04 87° E 21:57:23 81° SSE
Cosmos 2369 Rocket 3.2 22:01:46 36° NNE 22:01:46 36° NNE 22:05:00 10° NNE
MetOp-B 4.3 22:02:48 68° NNW 22:02:48 68° NNW 22:07:28 10° NNW
USA 267 3.9 22:06:11 39° NE 22:07:00 41° NNE 22:13:02 10° NW
Gblst 52 Del rocket 4.4 22:02:27 10° WSW 22:07:37 65° W 22:07:37 65° W
USA 245 4.5 22:09:51 69° N 22:09:51 69° N 22:15:24 10° N
Cosmos 2233 Rocket 4.0 22:10:13 73° N 22:10:13 73° N 22:15:44 10° N
ERS-1 Rocket 4.3 22:23:15 34° W 22:23:15 34° W 22:27:42 10° NNW
H-2A R/B 3.4 22:31:01 34° N 22:31:01 34° N 22:33:56 10° N
CZ-3 Stage 3 4.2 22:24:22 10° W 22:38:06 31° SW 22:38:06 31° SW
CZ-4C R/B 4.3 22:48:37 18° NNE 22:48:37 18° NNE 22:50:17 10° NNE
USA 215 4.3 23:11:35 10° NE 23:17:33 40° NNW 23:23:31 10° W
